AirNav   Everest Fuels
 
 338 users online  

0MU6 Bradbury-Rolf Memorial Heliport
Higginsville, Missouri, USA

GOING TO HIGGINSVILLE?


FAA INFORMATION EFFECTIVE 28 FEBRUARY 2019

Location

FAA Identifier: 0MU6
Lat/Long: 39-04-25.4400N / 093-44-09.2200W
39-04.424000N / 093-44.153667W
39.0737333 / -93.7358944
(estimated)
Elevation: 815 ft. / 248 m (estimated)
Variation: 04E (1995)
Time zone: UTC -6 (UTC -5 during Daylight Saving Time)
Zip code: 64037

Heliport Operations

Heliport use: Private use, MEDICAL
Activation date: 09/1996
Control tower: no
ARTCC: KANSAS CITY CENTER
FSS: COLUMBIA FLIGHT SERVICE STATION
Attendance: UNATNDD
Wind indicator: yes
Segmented circle: no
Lights: FOR FLOOD LGTS CALL 660-584-3832.

Heliport Communications

WX AWOS-3 at RCM (18 nm S): 119.575 (660-422-7010)

Nearby radio navigation aids

VOR radial/distance  VOR name  Freq  Var
ANXr087/18.3NAPOLEON VORTAC114.0007E
BQSr166/34.0BRAYMER VOR/DME111.2003E

 
NDB name  Hdg/Dist  Freq  Var  ID
MARSHALL271/25.237103EPUR .--. ..- .-.
SEDALIA307/34.328103EDMO -.. -- ---

Heliport Services

Runway Information

Helipad H1

Dimensions: 60 x 60 ft. / 18 x 18 m
Surface: concrete
Runway edge lights: FLD
Runway edge markings: MARKED WITH LETTER H.
Latitude: 39-04.424000N
Longitude: 093-44.153667W
Elevation: 815.0 ft.
Traffic pattern: leftleft

Heliport Ownership and Management from official FAA records

Ownership: Privately-owned
Owner: FAMILY PRACTICE ASSOC
1200 W 22ND
HIGGINSVILLE, MO 64037
Phone (660) 584-7751
Manager: ROD KIRCHHOFF
850 WILLOW CREEK LN
HIGGINSVILLE, MO 64037
Phone 660-584-7623

Additional Remarks

A52-H1 30-40 FT PLINES MKD E & S OF HELIPAD.

Instrument Procedures

There are no published instrument procedures at 0MU6.

Some nearby airports with instrument procedures:

KHIG - Higginsville Industrial Municipal Airport (3 nm E)
KRCM - Skyhaven Airport (18 nm S)
KSZL - Whiteman Air Force Base (22 nm SE)
3GV - East Kansas City Airport (23 nm W)
KMHL - Marshall Memorial Municipal Airport (25 nm E)
 
Loc | Ops | Rwys | IFR | FBO | Links
Com | Nav | Svcs | Stats | Notes

Kansas City Aviation Department
 
Area around 0MU6 (Bradbury-Rolf Memorial Heliport)
 
Road maps at: MapQuest Bing Google
 
Aerial photo
No photo
 
Sectional chart

 
Airport distance calculator
Flying to Bradbury-Rolf Memorial Heliport? Find the distance to fly.

From to 0MU6

Sunrise and sunset
Times for 24-Mar-2019
 Local
(UTC-5)
 Zulu
(UTC)
Morning civil twilight06:4611:46
Sunrise07:1312:13
Sunset19:3000:30
Evening civil twilight19:5600:56

Current date and time
Zulu (UTC)  24-Mar-2019 10:13:07
Local (UTC-5)  24-Mar-2019 05:13:07
 
METAR
KRCM 
18nm S 
240955Z AUTO 17004KT 10SM BKN025 BKN032 08/06 A2998 RMK AO2
KSZL 
23nm SE 
240856Z 18008KT 10SM SCT050 09/08 A2994 RMK AO2A SLP141 T00850082 57018 $
KMHL 
25nm E 
240955Z AUTO 10003KT 10SM BKN035 08/06 A2999 RMK AO2
KLXT 
30nm W 
241001Z AUTO 26003KT 10SM OVC013 09/06 A2998 RMK AO2 T00940061 $
KGPH 
31nm NW 
240955Z AUTO 12003KT 10SM OVC020 08/06 A2998 RMK AO2 LTG DSNT W
KDMO 
34nm SE 
240953Z AUTO 17009KT 10SM CLR 09/07 A2998 RMK AO2 SLP155 T00940072
TAF
KSZL 
23nm SE 
232333Z 2323/2501 15015G25KT 8000 -SHRA SCT070 OVC100 621008 510102 QNH2994INS BECMG 2404/2405 14012KT 8000 -SHRA OVC010 540103 QNH2997INS BECMG 2411/2412 18006KT 6000 -SHRA BR OVC004 540103 QNH2993INS TEMPO 2412/2416 20015G20KT 4800 -TSRA OVC004CB BECMG 2417/2418 23010G15KT 8000 -SHRA BKN015 QNH2994INS BECMG 2421/2422 28012KT 9999 NSW BKN025 QNH2992INS TX17/2419Z TN08/2410Z
NOTAMs
Click for the latest NOTAMs
NOTAMs are issued by the DoD/FAA and will open in a separate window not controlled by AirNav.

 

 
 

Would you like to see your business listed on this page?

 If your business provides an interesting product or service to pilots, flight crews, aircraft, or users of the Bradbury-Rolf Memorial Heliport, you should consider listing it here.  To start the listing process, click on the button below
 
Add a business
 

Other Pages about Bradbury-Rolf Memorial Heliport

Update a link
 
Copyright © AirNav, LLC. All rights reserved. Privacy Policy  Contact